Location: Kuppenheim
(48.8299°N, 8.2568°E)
Time: 21:44:05
(UTC+00:00)

Cosmos 990 Rocket - Pass Details

Date: 24 October 2021
Orbit: 746 x 769 km, 74.0° (Epoch: 27 November)

Event Time Altitude Azimuth Distance (km) Brightness Sun altitude
Rises 16:44:20 0° 266° (W) 3,225 9.7 -4.7°
Reaches altitude 10° 16:48:14 10° 295° (WNW) 2,308 7.4 -5.3°
Maximum altitude 16:50:27 13° 320° (NW) 2,138 6.7 -5.7°
Drops below altitude 10° 16:52:40 10° 345° (NNW) 2,318 6.6 -6.0°
Sets 16:56:37 0° 15° (NNE) 3,252 7.0 -6.6°
